Location: Bakhuizen
(52.8696°N, 5.4575°E)
Time: 21:27:28
(UTC+00:00)

Cosmos 1833 - Pass Details

Date: 26 September 2021
Orbit: 834 x 864 km, 70.9° (Epoch: 24 October)

Event Time Altitude Azimuth Distance (km) Brightness Sun altitude
Rises 19:10:52 0° 326° (NNW) 3,402 8.3 -16.3°
Reaches altitude 10° 19:13:21 10° 323° (NW) 2,461 7.5 -16.6°
Maximum altitude 19:18:53 61° 245° (WSW) 950 4.6 -17.4°
Enters shadow 19:23:58 12° 167° (SSE) 2,288 6.1 -18.1°
